Evansville, IN

6:56 PM CDT on May 26, 2017 (GMT -0500)
Evansville Regional

Weather History for KEVV - October, 2012

Change the Weather History Date:

Thursday, October 25, 2012

  Actual Average Record
Temperature  
Mean Temperature 66 °F 55 °F  
Max Temperature 79 °F 67 °F 85 °F (1940)
Min Temperature 53 °F 43 °F 26 °F (1999)
Degree Days  
Heating Degree Days 0 11  
Month to date heating degree days 186 188  
Since 1 July heating degree days 229 235  
Cooling Degree Days 1 0  
Month to date cooling degree days 22 28  
Year to date cooling degree days 1843 1394  
Growing Degree Days 18 (Base 50)    
Moisture  
Dew Point 55 °F    
Average Humidity 64    
Maximum Humidity 78    
Minimum Humidity 50    
Precipitation  
Precipitation 0.00 in 0.10 in 1.23 in (1905)
Month to date precipitation 2.30 2.58  
Year to date precipitation 27.87 36.55  
Snow  
Snow 0.00 in 0.00 in 0.00 in (2002)
Month to date snowfall 0.0 0.1  
Since 1 July snowfall 0.0 0.1  
Since 1 September snowfall 0.0 0.1  
Snow Depth 0.00 in    
Sea Level Pressure  
Sea Level Pressure 29.96 in    
Wind  
Wind Speed 9 mph (SSW)    
Max Wind Speed 28 mph    
Max Gust Speed 37 mph    
Visibility 10 miles    
Events      
T = Trace of Precipitation, MM = Missing Value Source: NWS Daily Summary

Daily Weather History Graph

Daily Weather History Graph

Search for Another Location

Airport or City:

Trip Planner

Search our weather history database for the weather conditions in past years. The results will help you decide how hot, cold, wet, or windy it might be!

Date:

Astronomy

Oct. 25, 2012 Rise Set
Actual Time 7:09 AM CDT 5:58 PM CDT
Civil Twilight 6:42 AM CDT 6:25 PM CDT
Nautical Twilight 6:11 AM CDT 6:56 PM CDT
Astronomical Twilight 5:40 AM CDT 7:26 PM CDT
Moon 3:41 PM CDT (10/25) 3:08 AM CDT (10/25)
Length of Visible Light 11h 43m
Length of Day
10h 49m
Waxing Gibbous, 84% of the Moon is Illuminated
Oct 25
Waxing Gibbous
Oct 29
Full
Nov 6
Last Quarter
Nov 13
New
Nov 20
First Quarter

Hourly Weather History & Observations

Time (CDT) Temp. Dew Point Humidity Pressure Visibility Wind Dir Wind Speed Gust Speed Precip Events Conditions
12:54 AM 63.0 °F 53.1 °F 70% 29.99 in 10.0 mi SE 5.8 mph - N/A   Clear
1:54 AM 64.0 °F 53.1 °F 67% 29.98 in 10.0 mi SSE 5.8 mph - N/A   Clear
2:54 AM 63.0 °F 53.1 °F 70% 29.98 in 10.0 mi Calm Calm - N/A   Clear
3:54 AM 63.0 °F 54.0 °F 72% 29.97 in 10.0 mi South 4.6 mph - N/A   Clear
4:54 AM 62.1 °F 53.1 °F 72% 29.96 in 10.0 mi South 6.9 mph - N/A   Clear
5:54 AM 62.1 °F 53.1 °F 72% 29.97 in 10.0 mi SSE 5.8 mph - N/A   Clear
6:54 AM 60.1 °F 53.1 °F 78% 29.99 in 10.0 mi Calm Calm - N/A   Clear
8:54 AM 64.9 °F 55.0 °F 70% 30.01 in 10.0 mi South 6.9 mph - N/A   Clear
9:54 AM 69.1 °F 57.0 °F 65% 30.01 in 10.0 mi South 8.1 mph - N/A   Clear
10:54 AM 73.9 °F 57.9 °F 57% 29.99 in 10.0 mi SSW 9.2 mph 16.1 mph N/A   Clear
11:54 AM 77.0 °F 59.0 °F 54% 29.98 in 10.0 mi SSW 17.3 mph 24.2 mph N/A   Clear
12:54 PM 78.1 °F 59.0 °F 52% 29.95 in 10.0 mi SW 16.1 mph 24.2 mph N/A   Clear
1:54 PM 78.1 °F 59.0 °F 52% 29.93 in 10.0 mi South 17.3 mph 21.9 mph N/A   Scattered Clouds
2:54 PM 78.8 °F 59.0 °F 51% 29.92 in 10.0 mi South 12.7 mph 23.0 mph N/A   Partly Cloudy
3:54 PM 78.1 °F 59.0 °F 52% 29.91 in 10.0 mi SSW 11.5 mph - N/A   Scattered Clouds
4:54 PM 77.0 °F 57.9 °F 52% 29.90 in 10.0 mi South 9.2 mph 19.6 mph N/A   Clear
5:54 PM 75.0 °F 57.9 °F 55% 29.91 in 10.0 mi South 9.2 mph - N/A   Clear
6:54 PM 73.0 °F 57.0 °F 57% 29.92 in 10.0 mi South 6.9 mph - N/A   Clear
7:54 PM 72.0 °F 57.0 °F 59% 29.92 in 10.0 mi South 4.6 mph - N/A   Clear
8:54 PM 71.1 °F 55.9 °F 59% 29.93 in 10.0 mi South 6.9 mph - N/A   Partly Cloudy
9:54 PM 69.1 °F 55.0 °F 61% 29.94 in 10.0 mi SSW 8.1 mph - N/A   Clear
10:54 PM 70.0 °F 55.9 °F 61% 29.97 in 10.0 mi West 16.1 mph - N/A   Overcast
11:13 PM 57.2 °F 48.2 °F 72% 30.00 in 10.0 mi NW 18.4 mph 28.8 mph N/A   Overcast
11:54 PM 55.0 °F 48.0 °F 77% 30.04 in 10.0 mi NW 12.7 mph 21.9 mph N/A   Overcast